Flag for Germany Weather past 2 weeks in Tönisvorst, North Rhine-Westphalia, Germany

Now
64 °F

Scattered clouds.


Feels Like: 64 °F
Forecast: 53 / 77 °F
Wind: 5 mph from Southwest

Location: Monchengladbach Airport

Current Time: Aug 28, 2015 at 12:21:51 PM

Latest Report: Aug 28, 2015 at 11:50 AM


Visibility: N/A

Pressure: 30.07 "Hg

Humidity: 73%

Dew point: 55 °F

Location of TönisvorstLocation

Historic Weather in Tönisvorst — Graph

°F

Tönisvorst temperature yesterday

Maximum temperature yesterday: 66 °F (at 7:50 AM)
Minimum temperature yesterday: 57 °F (at 4:20 PM)
Average temperature yesterday: 61 °F

Past Weeks' High & Low Weather Summary

 TemperatureHumidityPressure
High86 °F (Aug 13, 3:50 PM)100% (Aug 14, 7:20 AM)30.24 "Hg (Aug 14, 7:20 AM)
Low54 °F (Aug 19, 7:50 AM)34% (Aug 22, 2:20 PM)29.50 "Hg (Aug 24, 4:20 PM)
Average68 °F72%29.93 "Hg
* Reported Aug 13 11:20 AM — Aug 28 11:20 AM, Tönisvorst, Weather by CustomWeather, © 2015

Note: Actual official high and low records may vary slightly from our data, if they occured in-between our weather recording intervals... More about our weather records

Advertising

Tönisvorst weather history for previous 24 hours

 ConditionsComfort  
Time TempWeatherWind HumidityBarometerVisibility
11:20 AM
Fri, Aug 28
64 °FBroken clouds.5 mph78%30.04 "HgN/A
10:50 AM63 °FScattered clouds.6 mph77%30.04 "HgN/A
10:20 AM63 °FScattered clouds.3 mph88%30.04 "HgN/A
9:50 AM61 °FSunny.3 mph88%30.04 "Hg10 mi
9:20 AM59 °FSunny.1 mph94%30.01 "Hg10 mi
8:50 AM59 °FSunny.3 mph100%30.01 "Hg10 mi
8:20 AM57 °FSunny.2 mph100%30.01 "Hg10 mi
7:50 AM55 °FSunny.No wind100%30.01 "Hg10 mi
8:20 PM
Thu, Aug 27
57 °FLight rain. Partly cloudy.No wind100%29.86 "Hg4 mi
7:50 PM57 °FLight rain. Fog.No wind100%29.86 "Hg3 mi
7:20 PM57 °FLight rain. Fog.1 mph100%29.86 "Hg3 mi
6:50 PM57 °FLight rain. Partly cloudy.2 mph100%29.86 "HgN/A
6:20 PM57 °FLight rain. Passing clouds.3 mph100%29.86 "Hg5 mi
5:50 PM57 °FLight rain. Fog.6 mph94%29.86 "Hg3 mi
5:20 PM57 °FLight rain. Fog.5 mph94%29.86 "Hg3 mi
4:50 PM57 °FRain. Passing clouds.5 mph100%29.86 "Hg3 mi
4:20 PM57 °FRain. Partly cloudy.3 mph94%29.86 "Hg3 mi
3:50 PM59 °FLight rain. Passing clouds.5 mph94%29.86 "Hg5 mi
3:20 PM59 °FLight rain. Partly cloudy.7 mph94%29.86 "Hg5 mi
2:50 PM59 °FLight rain. Passing clouds.6 mph94%29.86 "Hg5 mi
2:20 PM59 °FLight rain. Passing clouds.7 mph94%29.86 "HgN/A
1:50 PM61 °FLight rain. Partly cloudy.9 mph88%29.86 "Hg4 mi
1:20 PM63 °FLight rain. Passing clouds.9 mph88%29.86 "Hg4 mi
12:50 PM63 °FRain. Fog.5 mph94%29.86 "Hg3 mi
12:20 PM64 °FRain. Partly sunny.6 mph88%29.86 "Hg3 mi
Weather by CustomWeather, © 2015

See weather overviewHow to use our weather pages